Leuchars, United Kingdom

7:11 PM BST on May 24, 2018 (GMT +0100)
Leuchars Air Base

Weather History for EGQL - September, 2013

Change the Weather History Date:

Saturday, September 21, 2013

  Actual Average Record
Temperature  
Mean Temperature 56 °F -  
Max Temperature 60 °F 55 °F 71 °F (1998)
Min Temperature 51 °F 44 °F 37 °F (2012)
Degree Days  
Heating Degree Days 10    
Growing Degree Days 6 (Base 50)    
Moisture  
Dew Point 52 °F    
Average Humidity 80    
Maximum Humidity 88    
Minimum Humidity 69    
Precipitation  
Precipitation 0.00 in - - ()
Sea Level Pressure  
Sea Level Pressure 30.03 in    
Wind  
Wind Speed 13 mph ()    
Max Wind Speed 18 mph    
Max Gust Speed -    
Visibility 8.2 miles    
Events      
Averages and records for this station are not official NWS values.
T = Trace of Precipitation, MM = Missing Value Source: Averaged Metar Reports

Daily Weather History Graph

Daily Weather History Graph

Search for Another Location

Airport or City:

Astronomy

Sep. 21, 2013 Rise Set
Actual Time 6:54 AM BST 7:13 PM BST
Civil Twilight 6:17 AM BST 7:50 PM BST
Nautical Twilight 5:32 AM BST 8:35 PM BST
Astronomical Twilight 4:44 AM BST 9:22 PM BST
Moon 7:39 PM BST (9/21) 9:29 AM BST (9/21)
Length of Visible Light 13h 33m
Length of Day
12h 18m
Waning Gibbous, 95% of the Moon is Illuminated
Sep 21
Waning Gibbous
Sep 27
Last Quarter
Oct 5
New
Oct 12
First Quarter
Oct 19
Full

Hourly Weather History & Observations

Time (BST) Temp. Dew Point Humidity Pressure Visibility Wind Dir Wind Speed Gust Speed Precip Events Conditions
12:50 AM 55 °F 48 °F 71% 29.99 in 25 mi WSW 18.4 mph - -   Scattered Clouds
12:50 AM 55.4 °F 48.2 °F 77% 29.98 in - WSW 18.4 mph - N/A   Clear
1:50 AM 53.6 °F 48.2 °F 82% 29.98 in 6.2 mi WSW 16.1 mph - N/A   Mostly Cloudy
2:50 AM 55.4 °F 48.2 °F 77% 30.01 in 6.2 mi WSW 12.7 mph - N/A   Mostly Cloudy
3:50 AM 55.4 °F 48.2 °F 77% 30.01 in 6.2 mi WSW 16.1 mph - N/A   Mostly Cloudy
4:50 AM 53.6 °F 48.2 °F 82% 29.98 in 6.2 mi WSW 18.4 mph - N/A   Mostly Cloudy
5:50 AM 53.6 °F 48.2 °F 82% 30.01 in 6.2 mi WSW 16.1 mph - N/A   Mostly Cloudy
6:50 AM 53 °F 47 °F 75% 30.02 in 19 mi WSW 18.4 mph - -   Scattered Clouds
6:50 AM 51.8 °F 48.2 °F 88% 30.01 in 6.2 mi WSW 18.4 mph - N/A   Mostly Cloudy
7:50 AM 53.6 °F 48.2 °F 82% 30.01 in 6.2 mi WSW 16.1 mph - N/A   Mostly Cloudy
8:50 AM 53.6 °F 48.2 °F 82% 30.04 in 6.2 mi WSW 16.1 mph - N/A   Mostly Cloudy
9:50 AM 56 °F 49 °F 69% 30.05 in 25 mi West 12.7 mph - -   Partly Cloudy
9:50 AM 55.4 °F 48.2 °F 77% 30.04 in 6.2 mi West 12.7 mph - N/A   Mostly Cloudy
10:50 AM 59.0 °F 50.0 °F 72% 30.04 in 6.2 mi WSW 17.3 mph - N/A   Mostly Cloudy
11:50 AM 59.0 °F 50.0 °F 72% 30.06 in 6.2 mi West 6.9 mph - N/A   Mostly Cloudy
12:50 PM 58 °F 51 °F 70% 30.07 in 19 mi West 9.2 mph - -   Overcast
12:50 PM 57.2 °F 50.0 °F 77% 30.06 in 6.2 mi West 9.2 mph - N/A   Overcast
1:50 PM 59.0 °F 51.8 °F 77% 30.06 in 6.2 mi West 9.2 mph - N/A   Overcast
2:50 PM 59.0 °F 53.6 °F 82% 30.06 in 6.2 mi WSW 12.7 mph - N/A   Overcast
3:50 PM 59 °F 54 °F 77% 30.07 in 12 mi WSW 8.1 mph - -   Partly Cloudy
3:50 PM 59.0 °F 53.6 °F 82% 30.06 in 6.2 mi WSW 8.1 mph - N/A   Overcast
5:02 PM 59.0 °F 53.6 °F 82% 30.04 in 6.2 mi SW 5.8 mph - N/A   Overcast
5:50 PM 59.0 °F 55.4 °F 88% 30.04 in 6.2 mi SW 5.8 mph - N/A   Mostly Cloudy
6:50 PM 60 °F 55 °F 80% 30.06 in 19 mi NNW 2.3 mph - -   Partly Cloudy
6:50 PM 60.8 °F 55.4 °F 82% 30.04 in 6.2 mi NNW 2.3 mph - N/A   Mostly Cloudy
7:50 PM 60.8 °F 55.4 °F 82% 30.04 in 6.2 mi SW 3.5 mph - N/A   Mostly Cloudy
8:50 PM 60.8 °F 57.2 °F 88% 30.04 in 6.2 mi WSW 16.1 mph - N/A   Mostly Cloudy
9:50 PM 60 °F 57 °F 88% 30.05 in 19 mi West 12.7 mph - -   Mostly Cloudy
9:50 PM 60.8 °F 57.2 °F 88% 30.04 in 6.2 mi West 12.7 mph - N/A   Mostly Cloudy
10:50 PM 60.8 °F 57.2 °F 88% 30.04 in 6.2 mi WSW 16.1 mph - N/A   Mostly Cloudy
11:50 PM 60.8 °F 57.2 °F 88% 30.04 in 6.2 mi West 17.3 mph - N/A   Partly Cloudy